Limon, CO

12:17 PM MST on December 05, 2019 (GMT -0700)
Limon Municipal

Weather History for KLIC - October, 2019

Change the Weather History Date:

Wednesday, October 23, 2019

  Actual Average Record
Temperature  
Mean Temperature 41 °F -  
Max Temperature 55 °F - 86 °F (2003)
Min Temperature 27 °F - 18 °F (2004)
Degree Days  
Heating Degree Days 24    
Month to date heating degree days 465  
Cooling Degree Days 0    
Month to date cooling degree days 0  
Moisture  
Dew Point 28 °F    
Average Humidity 64    
Maximum Humidity 100    
Minimum Humidity 28    
Precipitation  
Precipitation 0.12 in - 0.02 in (2000)
Month to date precipitation 0.14  
Year to date precipitation 12.85  
Snow  
Snow 0.00 in - - ()
Snow Depth 0.00 in    
Sea Level Pressure  
Sea Level Pressure 30.14 in    
Wind  
Wind Speed 12 mph (North)    
Max Wind Speed 32 mph    
Max Gust Speed 44 mph    
Visibility 7 miles    
Events Snow    
T = Trace of Precipitation, MM = Missing Value Source: NWS Daily Summary

Daily Weather History Graph

Daily Weather History Graph

Search for Another Location

Airport or City:

Astronomy

Oct. 23, 2019 Rise Set
Actual Time 7:12 AM MDT 6:04 PM MDT
Civil Twilight 6:45 AM MDT 6:32 PM MDT
Nautical Twilight 6:13 AM MDT 7:03 PM MDT
Astronomical Twilight 5:42 AM MDT 7:34 PM MDT
Moon 1:36 AM MDT (10/23) 3:54 PM MDT (10/23)
Length of Visible Light 11h 46m
Length of Day
10h 52m
Waning Crescent, 26% of the Moon is Illuminated
Oct 23
Waning Crescent
Oct 27
New
Nov 4
First Quarter
Nov 12
Full
Nov 19
Last Quarter

Hourly Weather History & Observations

Time (MDT) Temp. Windchill Dew Point Humidity Pressure Visibility Wind Dir Wind Speed Gust Speed Precip Events Conditions
12:55 AM 33.1 °F - 19.0 °F 56% 29.88 in 10.0 mi Calm Calm - N/A   Clear
1:55 AM 37.0 °F 30.4 °F 21.9 °F 54% 29.87 in 10.0 mi WNW 9.2 mph - N/A   Clear
2:55 AM 36.0 °F 28.0 °F 21.9 °F 57% 29.86 in 10.0 mi WNW 11.5 mph - N/A   Clear
3:55 AM 37.0 °F 33.3 °F 21.9 °F 54% 29.86 in 10.0 mi WNW 4.6 mph - N/A   Clear
4:55 AM 35.1 °F 29.3 °F 21.0 °F 57% 29.91 in 10.0 mi NNW 6.9 mph - N/A   Clear
5:55 AM 37.0 °F 25.9 °F 26.1 °F 65% 29.95 in 10.0 mi North 23.0 mph 32.2 mph N/A   Scattered Clouds
6:08 AM 37.0 °F 26.2 °F 30.0 °F 76% 30.03 in 10.0 mi North 21.9 mph 32.2 mph N/A   Clear
6:55 AM 34.0 °F 24.6 °F 30.9 °F 89% 30.01 in 10.0 mi North 13.8 mph - N/A   Clear
7:55 AM 33.1 °F 28.7 °F 30.0 °F 89% 30.06 in 10.0 mi NW 4.6 mph - N/A   Clear
8:55 AM 39.0 °F 31.8 °F 30.9 °F 73% 30.05 in 10.0 mi WNW 11.5 mph - N/A   Clear
9:55 AM 45.0 °F 36.6 °F 28.0 °F 52% 30.06 in 10.0 mi NNW 21.9 mph 26.5 mph N/A   Clear
10:55 AM 48.0 °F - 24.1 °F 39% 30.05 in 10.0 mi North 20.7 mph 33.4 mph N/A   Clear
11:55 AM 50.0 °F - 24.1 °F 36% 30.04 in 10.0 mi North 20.7 mph 27.6 mph N/A   Clear
12:55 PM 52.0 °F - 24.1 °F 34% 30.00 in 10.0 mi North 18.4 mph 32.2 mph N/A   Clear
1:55 PM 53.1 °F - 21.0 °F 29% 29.99 in 10.0 mi North 19.6 mph 33.4 mph N/A   Clear
2:55 PM 48.0 °F - 25.0 °F 41% 30.04 in 10.0 mi North 28.8 mph 42.6 mph N/A   Overcast
3:55 PM 43.0 °F 33.5 °F 23.0 °F 45% 30.06 in 10.0 mi North 24.2 mph 38.0 mph N/A   Overcast
4:55 PM 39.9 °F 31.4 °F 24.1 °F 53% 30.14 in 10.0 mi North 16.1 mph 34.5 mph N/A   Overcast
5:26 PM 37.0 °F 27.0 °F 30.0 °F 76% 30.16 in 7.0 mi North 18.4 mph 26.5 mph 0.00 in Snow Light Snow
5:55 PM 36.0 °F 29.6 °F 34.0 °F 93% 30.18 in 10.0 mi North 8.1 mph - 0.00 in   Overcast
6:55 PM 34.0 °F 24.6 °F 32.0 °F 92% 30.25 in 8.0 mi North 13.8 mph 20.7 mph 0.02 in Snow Light Snow
7:22 PM 32.0 °F 23.6 °F 32.0 °F 100% 30.27 in 2.5 mi North 10.4 mph - 0.01 in Snow Light Snow
7:35 PM 32.0 °F 24.2 °F 32.0 °F 100% 30.27 in 1.8 mi North 9.2 mph - 0.02 in Snow Light Snow
7:47 PM 32.0 °F 23.6 °F 32.0 °F 100% 30.28 in 3.0 mi North 10.4 mph - 0.03 in Snow Light Snow
7:55 PM 32.0 °F 24.2 °F 32.0 °F 100% 30.31 in 2.0 mi North 9.2 mph - 0.03 in Snow Light Snow
8:03 PM 32.0 °F 24.8 °F 32.0 °F 100% 30.27 in 1.5 mi NNE 8.1 mph - 0.01 in Snow Light Snow
8:19 PM 32.0 °F 22.1 °F 32.0 °F 100% 30.26 in 1.2 mi NE 13.8 mph - 0.02 in Snow Light Snow
8:52 PM 30.2 °F 18.5 °F 30.2 °F 100% 30.27 in 1.8 mi NE 17.3 mph - 0.05 in Snow Light Snow
8:55 PM 30.9 °F 20.2 °F 30.0 °F 96% 30.30 in 1.8 mi NE 15.0 mph - 0.05 in Snow Light Snow
9:09 PM 30.9 °F 19.8 °F 30.9 °F 100% 30.30 in 2.0 mi NNE 16.1 mph - 0.00 in Snow Light Snow
9:19 PM 30.0 °F 18.7 °F 30.0 °F 100% 30.28 in 1.5 mi NE 16.1 mph - 0.00 in Snow Light Snow
9:33 PM 30.0 °F 19.5 °F 30.0 °F 100% 30.31 in 2.5 mi NE 13.8 mph - 0.01 in Snow Light Snow
9:40 PM 30.0 °F 18.7 °F 28.9 °F 96% 30.31 in 3.0 mi NE 16.1 mph - 0.01 in Snow Light Snow
9:55 PM 30.0 °F 20.5 °F 28.9 °F 96% 30.31 in 2.0 mi NE 11.5 mph - 0.01 in Snow Light Snow
10:43 PM 28.9 °F 18.6 °F 28.0 °F 96% 30.33 in 3.0 mi NE 12.7 mph - 0.01 in Snow Light Snow
10:55 PM 28.9 °F 19.8 °F 28.0 °F 96% 30.33 in 6.0 mi NNE 10.4 mph - 0.01 in Snow Light Snow
11:55 PM 28.0 °F 21.7 °F 27.0 °F 96% 30.32 in 9.0 mi North 5.8 mph - 0.00 in Snow Light Snow